Regional Weather Roundup
Issued by NWS San Angelo, TX

Home | Current Version | Previous Version | Text Only | Print | Product List | Glossary On
Versions: 1 2 3 4 5 6 7 8 9 10 11 12 13 14 15 16 17 18 19 20 21 22 23 24 25 26 27 28 29 30 31 32 33 34 35 36 37 38 39 40 41 42 43 44 45 46 47 48 49 50
000
ASUS44 KSJT 031210
RWRSJT
WEST CENTRAL TEXAS REGIONAL WEATHER ROUNDUP
NATIONAL WEATHER SERVICE SAN ANGELO TX
700 AM CDT SUN MAY 03 2015

NOTE: "FAIR" INDICATES FEW OR NO CLOUDS BELOW 12,000 FEET WITH NO
SIGNIFICANT WEATHER AND/OR OBSTRUCTIONS TO VISIBILITY.

TXZ049-054-064>066-071>073-076>078-098-099-113-114-127-128-139-140-
154-155-168>170-031300
...LOCATIONS ACROSS WEST CENTRAL TEXAS...

CITY           SKY/WX    TMP DP  RH WIND       PRES   REMARKS
SAN ANGELO     PTCLDY    60  55  83 S9        29.95R
ABILENE        CLEAR     58  53  84 S5        29.97R
DYESS AFB      CLEAR     57  53  88 S10       29.95R
JUNCTION       CLOUDY    65  58  78 S12       29.99R
SWEETWATER     CLEAR     57  50  77 CALM      29.99R
BROWNWOOD      CLEAR     55  55 100 SE5       29.99R
COLEMAN        SUNNY     57  55  94 S8        29.97S
SONORA         CLOUDY    64  59  82 S12G17    30.01S
OZONA          CLOUDY    63  55  77 S13G20    29.99R
BRADY          NOT AVBL
$$

TEXAS PANHANDLE/OKLAHOMA PANHANDLE

CITY           SKY/WX    TMP DP  RH WIND       PRES   REMARKS
AMARILLO       PTCLDY    56  45  66 S13       29.91S
BORGER         MOCLDY    64  43  46 SW7       29.88R
CANADIAN       MOCLDY    63  50  63 SW3       29.86R
DALHART        PTCLDY    55  42  61 NW9       29.93S
DUMAS          MOSUNNY   54  44  69 SW8       29.90S
GUYMON         NOT AVBL
HEREFORD       MOSUNNY   56  47  71 MISG      29.93S
PAMPA          CLOUDY    60  45  58 SW6       29.90R
PERRYTON       MOCLDY    58  49  72 S7        29.85S
$$

SOUTHERN PANHANDLE/SOUTH PLAINS/ROLLING PLAINS

CITY           SKY/WX    TMP DP  RH WIND       PRES   REMARKS
LUBBOCK        MOCLDY    57  45  64 S10       29.97S
SNYDER         CLEAR     54  47  77 CALM      29.98R
CHILDRESS      MOCLDY    59  51  75 S12       29.90F
SEMINOLE       MOSUNNY   54  43  67 E3        29.97F
$$

PERMIAN BASIN

CITY           SKY/WX    TMP DP  RH WIND       PRES   REMARKS
MIDLAND        PTCLDY    60  48  64 S9        29.94R
ODESSA         PTCLDY    58  45  62 SE6       29.94S
WINK           PTCLDY    58  44  60 SE10      29.89S
$$

FAR WEST/SOUTHWEST MOUNTAINS/TRANS PECOS

CITY           SKY/WX    TMP DP  RH WIND       PRES   REMARKS
ALPINE         PTSUNNY   64  44  48 SW7       30.04S
DRYDEN           N/A     61  56  83 E7        29.94R
EL PASO        PTCLDY    69  37  30 W3        29.94R
FORT STOCKTON  PTCLDY    59  47  64 SE12      29.92R
GUADALUPE PASS PTCLDY    64  34  32 SW12      30.02S
MARFA          CLOUDY    57  46  67 NW6       30.04S
PECOS          SUNNY     55  44  67 NW5       29.90R
$$

DALLAS/FORT WORTH METROPLEX

CITY           SKY/WX    TMP DP  RH WIND       PRES   REMARKS
DFW AIRPORT    PTCLDY    60  55  83 S8        29.98R
FTW MEACHAM    PTCLDY    61  55  81 S6        29.98R
DAL-EXECUTIVE  CLEAR     61  54  77 S3        29.98S
GRAND PRAIRIE  CLEAR    N/A N/A N/A S6        30.00S
ADDISON        NOT AVBL
MESQUITE       SUNNY     57  55  94 SE5       30.00S
LANCASTER      SUNNY     57  53  88 CALM      30.00S
$$

NORTH CENTRAL TEXAS

CITY           SKY/WX    TMP DP  RH WIND       PRES   REMARKS
SHRMAN/DENISON SUNNY     63  58  85 S8        29.98S
GAINESVILLE    CLEAR     56  54  91 S5        29.99R
BRIDGEPORT     MOSUNNY   61  56  83 S7        29.98S
DENTON         CLEAR     59  55  87 S9        29.98R
WAXAHACHIE     SUNNY     57  56  99 SE5       30.01R
GRANBURY         N/A     60  55  82 CALM      29.99S
$$

WESTERN NORTH TEXAS

CITY           SKY/WX    TMP DP  RH WIND       PRES   REMARKS
WICHITA FALLS  PTCLDY    56  53  90 S8        29.94R
VERNON         MOSUNNY   59  50  73 S10       29.93S
BRECKENRIDGE   SUNNY     61  55  78 S6        29.97R
COMANCHE       CLEAR     59  59 100 S8        29.98R
$$

CENTRAL AND SOUTH CENTRAL TEXAS

CITY           SKY/WX    TMP DP  RH WIND       PRES   REMARKS
AUSTIN/BERGSTM PTCLDY    49  49 100 CALM      30.00S
WACO           CLEAR     57  54  89 SE6       30.00R
HILLSBORO      MOSUNNY   56  53  88 SE6       30.00R
TEMPLE         CLEAR     55  48  76 S7        30.00R
KILLEEN-GRAY   CLEAR     55  54  96 S6        29.99R
FORT HOOD      CLEAR     56  54  94 SE5       29.99
GEORGETOWN     NOT AVBL
LAGO VISTA     FAIR      62  56  82 S5        30.01S
SAN MARCOS     MOCLDY    55  52  88 CALM      30.02R
NEW BRAUNFELS  CLEAR     58  55  90 CALM      29.99R
RANDOLPH AFB   CLEAR     57  56  97 N3        30.00S
SAN ANTONIO    PTCLDY    62  57  83 CALM      30.00S
STINSON        CLOUDY    63  59  87 SE3       29.99R
PLEASANTON     NOT AVBL
LA GRANGE      CLEAR     56  55  96 CALM      29.99S
GIDDINGS       SUNNY     54  53  97 CALM      30.05R
$$

EAST TEXAS

CITY           SKY/WX    TMP DP  RH WIND       PRES   REMARKS
PARIS          CLEAR     57  52  82 MISG      30.01S
CLARKSVILLE    NOT AVBL
TYLER          CLEAR     59  56  89 S6        30.02R
LONGVIEW       CLEAR     60  56  86 S3        30.03R
PALESTINE      SUNNY     58  56  94 SE3       30.04R
NACOGDOCHES      N/A     54  52  94 CALM      30.05R
$$

TEXAS HILL COUNTRY AND EDWARDS PLATEAU

CITY           SKY/WX    TMP DP  RH WIND       PRES   REMARKS
LLANO          MOSUNNY   54  54 100 CALM      30.03S
HORSESHOE BAY  FAIR      59  56  91 CALM      30.00R
KERRVILLE      CLOUDY    61  59  92 SE5       30.01S
FREDERICKSBRG  CLEAR     52  51  98 CALM      30.01S FOG
ROCKSPRINGS    CLOUDY    61  59  94 SE13      30.02S
HONDO          CLOUDY    61  58  90 E7        30.01S
UVALDE         CLOUDY    61  59  94 E5        29.99R
DEL RIO        CLOUDY    64  60  87 SE9       29.95R
$$

SOUTHEAST TEXAS

CITY           SKY/WX    TMP DP  RH WIND       PRES   REMARKS
COLLEGE STN    CLEAR     58  55  90 E3        30.02R
CALDWELL       SUNNY     54  54 100 CALM      30.05R
CROCKETT       NOT AVBL
BRENHAM        CLEAR     58  57  98 CALM      30.02R FOG
HUNTSVILLE     CLEAR     59  56  89 CALM      30.03R
CONROE         PTCLDY    51  49  92 CALM      30.03S FOG
HOUSTON BUSH   PTCLDY    58  57  97 CALM      30.02S
HOUSTON HOBBY  PTCLDY    61  58  90 CALM      30.01S
PERLAND        CLEAR     59  56  89 CALM      30.03R
WHARTON        SUNNY     57  56  97 SE3       30.02R
$$

THE UPPER TEXAS COAST

CITY           SKY/WX    TMP DP  RH WIND       PRES   REMARKS
ORANGE         SUNNY     58  56  94 CALM      30.06S FOG
PORT ARTHUR    CLEAR     60  59  96 CALM      30.04R
GALVESTON      PTCLDY    70  61  73 S6        30.03R
ANGLETON       PTCLDY    56  56 100 N3        30.01S
BAY CITY       MOSUNNY   59  59 100 NE3       30.01S
$$

TEXAS COASTAL BEND, RIO GRANDE PLAINS DEEP SOUTH TEXAS

CITY           SKY/WX    TMP DP  RH WIND       PRES   REMARKS
VICTORIA       CLEAR     60  59  96 E3        30.00R
BEEVILLE       FAIR      59  59 100 E3        29.98S
ROCKPORT       CLEAR     71  66  84 S6        29.98S
PORT ARANSAS   SUNNY     72  67  85 SE10      29.98R
PORT LAVACA    SUNNY     62  61  96 CALM      30.00R
CORPUS CHRISTI PTCLDY    65  63  93 SE6       29.98R
KINGSVILLE NAS PTCLDY    64  63  96 NE5       29.97S
COTULLA        CLEAR     63  59  87 SE6       29.97R
LAREDO         CLEAR     67  64  90 SE10      29.97R
BROWNSVILLE    CLOUDY    73  68  84 SE8       29.95S
PORT ISABEL    MOCLDY    73  67  81 SE9       29.95R
HEBBRONVILLE     N/A     64  63  96 E6        29.98R FOG
MCALLEN        PTCLDY    71  67  87 SE7       29.94S
WESLACO        CLOUDY    69  65  89 CALM      29.94S
FALFURRIAS     CLOUDY    63  61  94 E3        29.96S
EDINBURG       PTSUNNY   70  67  89 E5        29.95S
$$



USA.gov is the U.S. government's official web portal to all federal, state and local government web resources and services.